User: anonymous   Login
Location: Champseau
(45.8333°N, 1.7667°E)
Time: 02:27:09
(UTC+00:00)
Language:

STRAND 1 - Orbit

View from above orbital plane
View from above orbital plane
View from above satellite
View from above satellite

Ground track
Ground track

The orbit data is extracted from the following two-line orbital elements,

1 39090U 13009E   22274.53937853  .00000261  00000-0  10605-3 0  9998
2 39090  98.3995 109.8909 0008349 321.8067  38.2526 14.35333066502617
Epoch (UTC): 01 October 2022 12:56:42
Eccentricity: 0.0008349
inclination: 98.3995°
perigee height: 768 km
apogee height: 780 km
right ascension of ascending node: 109.8909°
argument of perigee: 321.8067°
revolutions per day: 14.35333066
mean anomaly at epoch: 38.2526°
orbit number at epoch: 50261

The dashed part of the orbit path shows where the satellite is in the earth's shadow,  

DLR